Mankato, MN

6:25 PM CST on November 11, 2019 (GMT -0600)
Mankato Regional

Weather History for KMKT - September, 2019

Change the Weather History Date:

Tuesday, September 3, 2019

  Actual Average Record
Temperature  
Mean Temperature 68 °F -  
Max Temperature 75 °F 75 °F 87 °F (2015)
Min Temperature 57 °F 56 °F 44 °F (2013)
Cooling Degree Days 2    
Growing Degree Days 18 (Base 50)    
Moisture  
Dew Point 64 °F    
Average Humidity 83    
Maximum Humidity 100    
Minimum Humidity 45    
Precipitation  
Precipitation 0.00 in - - ()
Sea Level Pressure  
Sea Level Pressure 29.84 in    
Wind  
Wind Speed 10 mph ()    
Max Wind Speed 25 mph    
Max Gust Speed 33 mph    
Visibility 9.9 miles    
Events      
Averages and records for this station are not official NWS values.
T = Trace of Precipitation, MM = Missing Value Source: Averaged Metar Reports

Daily Weather History Graph

Daily Weather History Graph

Search for Another Location

Airport or City:

Astronomy

Sep. 03, 2019 Rise Set
Actual Time 6:40 AM CDT 7:48 PM CDT
Civil Twilight 6:10 AM CDT 8:18 PM CDT
Nautical Twilight 5:35 AM CDT 8:53 PM CDT
Astronomical Twilight 4:57 AM CDT 9:31 PM CDT
Moon 11:44 AM CDT (9/3) 10:34 PM CDT (9/3)
Length of Visible Light 14h 07m
Length of Day
13h 07m
Waxing Crescent, 25% of the Moon is Illuminated
Sep 3
Waxing Crescent
Sep 5
First Quarter
Sep 13
Full
Sep 21
Last Quarter
Sep 28
New

Hourly Weather History & Observations

Time (CDT) Temp. Dew Point Humidity Pressure Visibility Wind Dir Wind Speed Gust Speed Precip Events Conditions
12:56 AM 69.1 °F 68.0 °F 96% 29.81 in 10.0 mi ESE 4.6 mph - N/A   Overcast
1:56 AM 71.1 °F 69.1 °F 93% 29.77 in 10.0 mi SE 6.9 mph - N/A   Overcast
2:56 AM 71.1 °F 70.0 °F 96% 29.75 in 10.0 mi South 5.8 mph - N/A   Overcast
3:42 AM 71.6 °F 71.6 °F 100% 29.75 in 10.0 mi SSW 9.2 mph - N/A   Overcast
3:56 AM 72.0 °F 71.1 °F 97% 29.75 in 10.0 mi WSW 6.9 mph - N/A   Overcast
4:34 AM 71.6 °F 71.6 °F 100% 29.76 in 10.0 mi WSW 10.4 mph - N/A   Overcast
4:41 AM 71.6 °F 71.6 °F 100% 29.76 in 10.0 mi SW 9.2 mph - N/A   Overcast
4:56 AM 72.0 °F 72.0 °F 100% 29.73 in 10.0 mi SW 8.1 mph - N/A   Overcast
5:06 AM 71.6 °F 71.6 °F 100% 29.75 in 10.0 mi WSW 9.2 mph - N/A   Mostly Cloudy
5:14 AM 71.6 °F 71.6 °F 100% 29.75 in 10.0 mi WSW 9.2 mph - N/A   Scattered Clouds
5:21 AM 71.6 °F 71.6 °F 100% 29.75 in 10.0 mi WSW 9.2 mph - N/A   Mostly Cloudy
5:28 AM 71.6 °F 71.6 °F 100% 29.75 in 9.0 mi WSW 8.1 mph - N/A   Mostly Cloudy
5:44 AM 71.6 °F 71.6 °F 100% 29.76 in 9.0 mi West 8.1 mph - N/A   Overcast
5:56 AM 71.1 °F 71.1 °F 100% 29.75 in 9.0 mi West 8.1 mph - N/A   Mostly Cloudy
6:10 AM 71.6 °F 71.6 °F 100% 29.78 in 9.0 mi West 10.4 mph - N/A   Mostly Cloudy
6:33 AM 71.6 °F 71.6 °F 100% 29.79 in 10.0 mi West 10.4 mph - N/A   Mostly Cloudy
6:56 AM 71.1 °F 70.0 °F 96% 29.79 in 10.0 mi WNW 11.5 mph - N/A   Overcast
7:56 AM 69.1 °F 68.0 °F 96% 29.82 in 10.0 mi WNW 17.3 mph 21.9 mph N/A   Overcast
8:44 AM 69.8 °F 66.2 °F 88% 29.82 in 10.0 mi NW 12.7 mph 18.4 mph N/A   Overcast
8:56 AM 69.1 °F 66.0 °F 90% 29.82 in 10.0 mi WNW 11.5 mph - N/A   Mostly Cloudy
9:05 AM 69.8 °F 66.2 °F 88% 29.81 in 10.0 mi NW 13.8 mph - N/A   Scattered Clouds
9:56 AM 69.1 °F 63.0 °F 81% 29.81 in 10.0 mi NW 17.3 mph 25.3 mph N/A   Clear
10:56 AM 71.1 °F 61.0 °F 70% 29.83 in 10.0 mi NW 16.1 mph - N/A   Clear
11:56 AM 75.0 °F 55.0 °F 50% 29.85 in 10.0 mi WNW 20.7 mph 27.6 mph N/A   Clear
12:56 PM 75.9 °F 53.1 °F 45% 29.86 in 10.0 mi WNW 25.3 mph 29.9 mph N/A   Clear
1:56 PM 75.0 °F 54.0 °F 48% 29.88 in 10.0 mi NW 21.9 mph 33.4 mph N/A   Scattered Clouds
2:56 PM 75.0 °F 55.0 °F 50% 29.89 in 10.0 mi WNW 25.3 mph 31.1 mph N/A   Mostly Cloudy
3:56 PM 75.0 °F 54.0 °F 48% 29.90 in 10.0 mi WNW 21.9 mph 31.1 mph N/A   Partly Cloudy
4:56 PM 72.0 °F 55.0 °F 55% 29.92 in 10.0 mi NW 23.0 mph 28.8 mph N/A   Scattered Clouds
5:56 PM 71.1 °F 55.0 °F 57% 29.95 in 10.0 mi NW 18.4 mph 25.3 mph N/A   Scattered Clouds
6:56 PM 69.1 °F 54.0 °F 58% 29.97 in 10.0 mi NW 17.3 mph 26.5 mph N/A   Mostly Cloudy
7:56 PM 64.9 °F 54.0 °F 68% 29.99 in 10.0 mi NW 13.8 mph - N/A   Clear
8:56 PM 64.0 °F 54.0 °F 70% 30.02 in 10.0 mi NW 12.7 mph - N/A   Overcast
9:56 PM 62.1 °F 54.0 °F 75% 30.04 in 10.0 mi NW 11.5 mph - N/A   Overcast
10:56 PM 60.1 °F 55.0 °F 83% 30.06 in 10.0 mi NW 12.7 mph - N/A   Clear
11:56 PM 57.9 °F 55.0 °F 90% 30.07 in 10.0 mi NW 9.2 mph - N/A   Clear